KC4YVA Weather Reports


time (UTC)temp
C
wind
direction
speed
KPH
gust
KPH
rain 1hr
cm
rain 24hr
cm
rain mn
cm
humidity
%
barometer
mb
20260510190505 31 217 0.0 0.0 0.00 0.00 0.00 21 1012.3
20260510185504 30 269 0.0 0.0 0.00 0.00 0.00 20 1012.4
20260510185005 30 273 0.0 1.6 0.00 0.00 0.00 20 1012.5
20260510184505 30 149 0.0 4.8 0.00 0.00 0.00 20 1012.4
20260510184005 30 243 0.0 0.0 0.00 0.00 0.00 22 1012.4
20260510183504 30 255 0.0 1.6 0.00 0.00 0.00 23 1012.4
20260510183004 30 250 0.0 0.0 0.00 0.00 0.00 21 1012.4
20260510182505 30 231 0.0 3.2 0.00 0.00 0.00 22 1012.4
20260510182005 30 231 0.0 1.6 0.00 0.00 0.00 22 1012.5
20260510181505 30 242 0.0 0.0 0.00 0.00 0.00 19 1012.6
20260510181004 30 249 0.0 1.6 0.00 0.00 0.00 21 1012.7
20260510180504 30 317 0.0 1.6 0.00 0.00 0.00 21 1012.8
20260510180005 30 118 0.0 1.6 0.00 0.00 0.00 21 1012.8
20260510175005 31 274 0.0 0.0 0.00 0.00 0.00 22 1012.8
20260510174504 30 270 0.0 0.0 0.00 0.00 0.00 22 1012.8
20260510174004 30 293 0.0 0.0 0.00 0.00 0.00 23 1012.7
20260510173005 30 175 0.0 0.0 0.00 0.00 0.00 22 1012.6
20260510172504 29 317 0.0 0.0 0.00 0.00 0.00 24 1012.7
20260510172004 29 213 0.0 1.6 0.00 0.00 0.00 27 1012.8
20260510171504 28 202 0.0 0.0 0.00 0.00 0.00 27 1013.0
20260510170505 29 204 0.0 1.6 0.00 0.00 0.00 25 1013.0
20260510170005 28 191 0.0 1.6 0.00 0.00 0.00 27 1013.1
20260510165505 28 176 0.0 0.0 0.00 0.00 0.00 29 1013.1
20260510164504 28 233 0.0 0.0 0.00 0.00 0.00 28 1013.1
20260510163505 29 196 0.0 0.0 0.00 0.00 0.00 27 1013.2
20260510163005 28 216 0.0 0.0 0.00 0.00 0.00 27 1013.1
20260510162504 28 229 0.0 0.0 0.00 0.00 0.00 24 1013.2
20260510162004 28 188 0.0 0.0 0.00 0.00 0.00 24 1013.3
20260510161504 28 351 0.0 0.0 0.00 0.00 0.00 27 1013.3
20260510161004 28 233 0.0 0.0 0.00 0.00 0.00 28 1013.3
20260510160505 27 233 0.0 0.0 0.00 0.00 0.00 31 1013.3
20260510160004 27 233 0.0 0.0 0.00 0.00 0.00 31 1013.4
20260510155504 27 233 0.0 0.0 0.00 0.00 0.00 33 1013.4
20260510154505 26 200 0.0 0.0 0.00 0.00 0.00 33 1013.6
20260510154005 26 200 0.0 0.0 0.00 0.00 0.00 32 1013.6
20260510153004 25 16 0.0 0.0 0.00 0.00 0.00 32 1013.7
20260510152005 25 31 0.0 0.0 0.00 0.00 0.00 34 1013.8
20260510151504 25 8 0.0 0.0 0.00 0.00 0.00 33 1013.9
20260510151004 25 359 0.0 0.0 0.00 0.00 0.00 35 1013.9
20260510150504 25 349 0.0 0.0 0.00 0.00 0.00 37 1013.8
20260510145505 25 349 0.0 0.0 0.00 0.00 0.00 34 1013.8
20260510145004 24 218 0.0 0.0 0.00 0.00 0.00 34 1013.7
20260510144504 24 216 0.0 0.0 0.00 0.00 0.00 38 1013.7
20260510144004 24 212 0.0 0.0 0.00 0.00 0.00 38 1013.6
20260510143005 23 214 0.0 0.0 0.00 0.00 0.00 42 1013.6
20260510142504 23 190 0.0 0.0 0.00 0.00 0.00 42 1013.6
20260510142005 22 132 0.0 0.0 0.00 0.00 0.00 47 1013.5
20260510141504 22 133 0.0 0.0 0.00 0.00 0.00 48 1013.6
20260510141005 22 198 0.0 0.0 0.00 0.00 0.00 52 1013.6
20260510140504 21 198 0.0 0.0 0.00 0.00 0.00 49 1013.5
20260510140004 21 166 0.0 0.0 0.00 0.00 0.00 51 1013.5
20260510135504 21 166 0.0 0.0 0.00 0.00 0.00 55 1013.4
20260510135004 21 166 0.0 0.0 0.00 0.00 0.00 53 1013.4
20260510134504 20 166 0.0 0.0 0.00 0.00 0.00 57 1013.4
20260510134004 20 166 0.0 0.0 0.00 0.00 0.00 57 1013.5
20260510133505 20 166 0.0 0.0 0.00 0.00 0.00 57 1013.6
20260510133004 20 167 0.0 1.6 0.00 0.00 0.00 60 1013.7
20260510132504 19 191 0.0 0.0 0.00 0.00 0.00 64 1013.8
20260510132004 19 197 0.0 0.0 0.00 0.00 0.00 64 1013.6
20260510131505 18 331 0.0 0.0 0.00 0.00 0.00 66 1013.5
20260510131004 18 331 0.0 0.0 0.00 0.00 0.00 70 1013.4
20260510130504 17 202 0.0 0.0 0.00 0.00 0.00 71 1013.3
20260510125504 17 217 0.0 0.0 0.00 0.00 0.00 80 1013.4
20260510125004 16 217 0.0 0.0 0.00 0.00 0.00 80 1013.3
20260510124504 16 217 0.0 0.0 0.00 0.00 0.00 82 1013.4
20260510123505 15 217 0.0 0.0 0.00 0.00 0.00 83 1013.3
20260510123004 15 238 0.0 0.0 0.00 0.00 0.00 83 1013.2
20260510122004 15 238 0.0 0.0 0.00 0.00 0.00 83 1013.0
20260510121503 15 238 0.0 0.0 0.00 0.00 0.00 83 1013.0
20260510121004 14 238 0.0 0.0 0.00 0.00 0.00 83 1012.9
20260510120504 14 238 0.0 0.0 0.00 0.00 0.00 83 1013.0
20260510120005 14 238 0.0 0.0 0.00 0.00 0.00 83 1012.9
20260510115504 13 238 0.0 0.0 0.00 0.00 0.00 83 1012.9
20260510115005 13 238 0.0 0.0 0.00 0.00 0.00 82 1012.7
20260510114504 13 238 0.0 0.0 0.00 0.00 0.00 82 1012.7
20260510114003 13 238 0.0 0.0 0.00 0.00 0.00 82 1012.7
20260510113504 13 238 0.0 0.0 0.00 0.00 0.00 82 1012.5
20260510113004 13 238 0.0 0.0 0.00 0.00 0.00 82 1012.4
20260510112504 13 238 0.0 0.0 0.00 0.00 0.00 81 1012.3
20260510112004 13 238 0.0 0.0 0.00 0.00 0.00 81 1012.2
20260510111505 13 238 0.0 0.0 0.00 0.00 0.00 81 1012.2
20260510110504 13 238 0.0 0.0 0.00 0.00 0.00 81 1012.0
20260510110004 13 238 0.0 0.0 0.00 0.00 0.00 81 1011.9
20260510105504 13 238 0.0 0.0 0.00 0.00 0.00 81 1011.9
20260510104503 13 238 0.0 0.0 0.00 0.00 0.00 81 1011.9
20260510104004 13 238 0.0 0.0 0.00 0.00 0.00 81 1011.7
20260510103504 13 238 0.0 0.0 0.00 0.00 0.00 81 1011.7
20260510103004 13 238 0.0 0.0 0.00 0.00 0.00 81 1011.6
20260510102504 13 238 0.0 0.0 0.00 0.00 0.00 81 1011.6
20260510102004 13 238 0.0 0.0 0.00 0.00 0.00 81 1011.5
20260510101504 13 238 0.0 0.0 0.00 0.00 0.00 80 1011.4
20260510101003 13 238 0.0 0.0 0.00 0.00 0.00 80 1011.4
20260510100504 13 238 0.0 0.0 0.00 0.00 0.00 80 1011.2
20260510100004 13 238 0.0 0.0 0.00 0.00 0.00 80 1011.1
20260510095504 13 238 0.0 0.0 0.00 0.00 0.00 80 1011.1
20260510095004 14 238 0.0 0.0 0.00 0.00 0.00 81 1011.0
20260510094504 14 238 0.0 0.0 0.00 0.00 0.00 80 1011.0
20260510094004 14 238 0.0 0.0 0.00 0.00 0.00 80 1011.0
20260510093504 14 238 0.0 0.0 0.00 0.00 0.00 80 1011.0
20260510093004 14 238 0.0 0.0 0.00 0.00 0.00 80 1010.9
20260510092504 14 238 0.0 0.0 0.00 0.00 0.00 80 1010.9
20260510092003 14 238 0.0 0.0 0.00 0.00 0.00 80 1010.9
20260510091504 14 238 0.0 0.0 0.00 0.00 0.00 80 1010.9
20260510091004 14 238 0.0 0.0 0.00 0.00 0.00 80 1010.8
20260510090504 15 238 0.0 0.0 0.00 0.00 0.00 80 1010.7
20260510090003 15 238 0.0 0.0 0.00 0.00 0.00 79 1010.6
20260510085504 15 238 0.0 0.0 0.00 0.00 0.00 80 1010.6
20260510085005 15 238 0.0 0.0 0.00 0.00 0.00 80 1010.6
20260510084504 15 238 0.0 0.0 0.00 0.00 0.00 80 1010.6
20260510084004 15 238 0.0 0.0 0.00 0.00 0.00 80 1010.7
20260510083504 15 238 0.0 0.0 0.00 0.00 0.00 80 1010.6
20260510083004 15 238 0.0 0.0 0.00 0.00 0.00 79 1010.6
20260510082504 15 238 0.0 0.0 0.00 0.00 0.00 79 1010.7
20260510082004 15 238 0.0 0.0 0.00 0.00 0.00 79 1010.6
20260510081504 15 238 0.0 0.0 0.00 0.00 0.00 79 1010.5
20260510081003 15 238 0.0 0.0 0.00 0.00 0.00 79 1010.5
20260510080503 15 238 0.0 0.0 0.00 0.00 0.00 79 1010.5
20260510080004 15 238 0.0 0.0 0.00 0.00 0.00 78 1010.4
20260510075504 15 238 0.0 0.0 0.00 0.00 0.00 78 1010.4
20260510075004 16 238 0.0 0.0 0.00 0.00 0.00 78 1010.3
20260510074504 16 238 0.0 0.0 0.00 0.00 0.00 78 1010.3
20260510074004 16 238 0.0 0.0 0.00 0.00 0.00 78 1010.2
20260510073504 16 238 0.0 0.0 0.00 0.00 0.00 78 1010.2
20260510072004 16 238 0.0 0.0 0.00 0.00 0.00 77 1010.2
20260510071503 16 238 0.0 0.0 0.00 0.00 0.00 77 1010.2
20260510070504 16 238 0.0 0.0 0.00 0.00 0.00 77 1010.1
20260510070005 16 238 0.0 0.0 0.00 0.00 0.00 77 1010.2
20260510065503 16 238 0.0 0.0 0.00 0.00 0.00 77 1010.2
20260510065004 16 238 0.0 0.0 0.00 0.00 0.00 77 1010.1
20260510062504 16 238 0.0 0.0 0.00 0.00 0.00 77 1010.2
20260510062004 16 238 0.0 0.0 0.00 0.00 0.00 77 1010.3
20260510061504 16 238 0.0 0.0 0.00 0.00 0.00 77 1010.2
20260510061004 16 247 0.0 0.0 0.00 0.00 0.00 77 1010.4
20260510060503 16 260 0.0 0.0 0.00 0.00 0.00 76 1010.4
20260510060004 16 260 0.0 0.0 0.00 0.00 0.00 76 1010.3
20260510055504 16 260 0.0 0.0 0.00 0.00 0.00 76 1010.2
20260510054504 16 260 0.0 0.0 0.00 0.00 0.00 76 1010.4
20260510054004 16 260 0.0 0.0 0.00 0.00 0.00 76 1010.4
20260510053504 16 260 0.0 0.0 0.00 0.00 0.00 76 1010.4
20260510053003 16 260 0.0 0.0 0.00 0.00 0.00 76 1010.4
20260510052504 16 260 0.0 0.0 0.00 0.00 0.00 75 1010.5
20260510052004 16 260 0.0 0.0 0.00 0.00 0.00 75 1010.5
20260510051003 16 260 0.0 0.0 0.00 0.00 0.00 75 1010.6
20260510050015 16 260 0.0 0.0 0.00 0.00 0.00 74 1010.5
20260510045515 16 260 0.0 0.0 0.00 0.00 0.00 74 1010.6
20260510045015 16 260 0.0 0.0 0.00 0.00 0.00 74 1010.6
20260510044515 16 260 0.0 0.0 0.00 0.00 0.00 73 1010.6
20260510043516 16 260 0.0 0.0 0.00 0.00 0.00 73 1010.5
20260510043016 16 260 0.0 0.0 0.00 0.00 0.00 73 1010.6
20260510042015 16 260 0.0 0.0 0.00 0.00 0.00 73 1010.5
20260510041516 16 260 0.0 0.0 0.00 0.00 0.00 73 1010.5
20260510041015 16 260 0.0 0.0 0.00 0.00 0.00 72 1010.4
20260510040515 16 260 0.0 0.0 0.00 0.00 0.00 72 1010.3
20260510040015 16 260 0.0 0.0 0.00 0.00 0.00 72 1010.4
20260510035015 17 260 0.0 0.0 0.00 0.00 0.00 72 1010.3
20260510034515 17 260 0.0 0.0 0.00 0.00 0.00 72 1010.3
20260510034016 17 260 0.0 0.0 0.00 0.00 0.00 72 1010.3
20260510033516 17 260 0.0 0.0 0.00 0.00 0.00 72 1010.3
20260510033015 17 260 0.0 0.0 0.00 0.00 0.00 71 1010.2
20260510032515 17 260 0.0 0.0 0.00 0.00 0.00 71 1010.1
20260510032016 17 260 0.0 0.0 0.00 0.00 0.00 71 1010.2
20260510031516 17 260 0.0 0.0 0.00 0.00 0.00 71 1010.2
20260510031015 17 260 0.0 0.0 0.00 0.00 0.00 71 1010.1
20260510030515 17 260 0.0 0.0 0.00 0.00 0.00 70 1010.1
20260510030015 17 260 0.0 0.0 0.00 0.00 0.00 70 1010.0
20260510025515 17 260 0.0 0.0 0.00 0.00 0.00 70 1010.1
20260510025015 17 260 0.0 0.0 0.00 0.00 0.00 70 1009.9
20260510024516 17 260 0.0 0.0 0.00 0.00 0.00 70 1010.0
20260510024015 17 260 0.0 0.0 0.00 0.00 0.00 69 1010.0
20260510023515 17 260 0.0 0.0 0.00 0.00 0.00 69 1009.9
20260510022515 17 260 0.0 0.0 0.00 0.00 0.00 68 1009.8
20260510022015 17 260 0.0 0.0 0.00 0.00 0.00 68 1009.8
20260510021515 17 260 0.0 0.0 0.00 0.00 0.00 68 1009.7
20260510021016 17 260 0.0 0.0 0.00 0.00 0.00 67 1009.7
20260510020515 18 260 0.0 0.0 0.00 0.00 0.00 67 1009.6
20260510020015 18 260 0.0 0.0 0.00 0.00 0.00 67 1009.4
20260510015515 18 260 0.0 0.0 0.00 0.00 0.00 66 1009.4
20260510015015 18 260 0.0 0.0 0.00 0.00 0.00 66 1009.2
20260510014515 18 260 0.0 0.0 0.00 0.00 0.00 66 1009.3
20260510014015 18 260 0.0 0.0 0.00 0.00 0.00 65 1009.2
20260510013515 18 260 0.0 0.0 0.00 0.00 0.00 65 1009.2
20260510013015 18 260 0.0 0.0 0.00 0.00 0.00 65 1009.2
20260510012015 18 260 0.0 0.0 0.00 0.00 0.00 64 1009.0
20260510011515 18 260 0.0 0.0 0.00 0.00 0.00 64 1009.1
20260510011015 18 260 0.0 0.0 0.00 0.00 0.00 64 1009.0
20260510010515 18 260 0.0 0.0 0.00 0.00 0.00 63 1008.9
20260510010015 19 260 0.0 0.0 0.00 0.00 0.00 63 1008.9
20260510005515 19 260 0.0 0.0 0.00 0.00 0.00 62 1009.0
20260510005015 19 260 0.0 0.0 0.00 0.00 0.00 61 1008.9
20260510004515 20 260 0.0 0.0 0.00 0.00 0.00 61 1008.8
20260510004015 20 260 0.0 0.0 0.00 0.00 0.00 60 1008.7
20260510003515 20 260 0.0 0.0 0.00 0.00 0.00 59 1008.7
20260510003015 20 260 0.0 0.0 0.00 0.00 0.00 58 1008.7
20260510002516 20 260 0.0 0.0 0.00 0.00 0.00 57 1008.6
20260510002015 20 260 0.0 0.0 0.00 0.00 0.00 56 1008.5
20260510001515 20 260 0.0 0.0 0.00 0.00 0.00 56 1008.4
20260510000516 21 260 0.0 0.0 0.00 0.00 0.00 55 1008.3
20260510000015 21 260 0.0 0.0 0.00 0.00 0.00 55 1008.3
20260509235515 21 260 0.0 0.0 0.00 0.00 0.00 55 1008.2
20260509234515 21 260 0.0 0.0 0.00 0.00 0.00 55 1008.0
20260509234015 22 260 0.0 0.0 0.00 0.00 0.00 53 1008.0
20260509233515 22 260 0.0 0.0 0.00 0.00 0.00 52 1008.0
20260509233015 22 260 0.0 0.0 0.00 0.00 0.00 50 1008.0
20260509232515 22 260 0.0 0.0 0.00 0.00 0.00 50 1008.1
20260509232016 23 260 0.0 0.0 0.00 0.00 0.00 49 1008.0
20260509231515 23 260 0.0 0.0 0.00 0.00 0.00 47 1008.0
20260509231015 23 260 0.0 0.0 0.00 0.00 0.00 45 1008.0
20260509230515 23 260 0.0 0.0 0.00 0.00 0.00 47 1007.9
20260509230015 23 260 0.0 0.0 0.00 0.00 0.00 45 1007.9
20260509225515 23 260 0.0 0.0 0.00 0.00 0.00 43 1008.0
20260509225015 23 254 0.0 0.0 0.00 0.00 0.00 45 1008.0
20260509224515 24 198 0.0 0.0 0.00 0.00 0.00 45 1007.9
20260509224015 24 199 0.0 0.0 0.00 0.00 0.00 43 1008.0
20260509223515 24 199 0.0 0.0 0.00 0.00 0.00 41 1007.9
20260509223014 24 198 0.0 0.0 0.00 0.00 0.00 41 1007.9
20260509222515 24 195 0.0 0.0 0.00 0.00 0.00 41 1007.9
20260509221015 24 45 0.0 0.0 0.00 0.00 0.00 39 1007.9
20260509220514 24 206 0.0 0.0 0.00 0.00 0.00 39 1007.8
20260509220015 24 235 0.0 0.0 0.00 0.00 0.00 38 1007.8
20260509215515 25 11 0.0 0.0 0.00 0.00 0.00 40 1007.8
20260509215015 25 14 0.0 0.0 0.00 0.00 0.00 39 1007.7
20260509214515 25 26 0.0 0.0 0.00 0.00 0.00 40 1007.8
20260509214015 25 300 0.0 0.0 0.00 0.00 0.00 39 1007.8
20260509213515 25 169 0.0 3.2 0.00 0.00 0.00 39 1007.7
20260509212015 25 264 0.0 4.8 0.00 0.00 0.00 38 1007.6
20260509211515 25 208 0.0 0.0 0.00 0.00 0.00 38 1007.6
20260509211014 25 300 0.0 1.6 0.00 0.00 0.00 41 1007.6
20260509210515 25 62 0.0 0.0 0.00 0.00 0.00 39 1007.7
20260509210015 25 139 0.0 1.6 0.00 0.00 0.00 39 1007.7
20260509205515 25 261 0.0 3.2 0.00 0.00 0.00 39 1007.8
20260509205014 25 268 1.6 11.3 0.00 0.00 0.00 38 1007.7
20260509204515 24 65 0.0 0.0 0.00 0.00 0.00 44 1007.7
20260509204015 24 320 0.0 0.0 0.00 0.00 0.00 42 1007.7
20260509203014 24 191 0.0 0.0 0.00 0.00 0.00 43 1007.8
20260509202015 24 345 0.0 1.6 0.00 0.00 0.00 40 1007.8
20260509201515 23 178 0.0 0.0 0.00 0.00 0.00 42 1007.9
20260509201015 23 312 0.0 1.6 0.00 0.00 0.00 41 1008.1
20260509200514 23 234 0.0 1.6 0.00 0.00 0.00 42 1008.0
20260509200014 23 176 0.0 0.0 0.00 0.00 0.00 41 1008.1
20260509195515 23 147 0.0 1.6 0.00 0.00 0.00 38 1008.1
20260509195015 23 215 0.0 1.6 0.00 0.00 0.00 38 1008.2
20260509194515 24 208 0.0 0.0 0.00 0.00 0.00 39 1008.2
20260509194014 24 139 1.6 9.7 0.00 0.00 0.00 38 1008.3
20260509193515 24 127 0.0 4.8 0.00 0.00 0.00 37 1008.3
20260509192015 25 314 0.0 0.0 0.00 0.00 0.00 36 1008.4
20260509191514 25 87 0.0 0.0 0.00 0.00 0.00 34 1008.4
20260509191015 26 190 0.0 1.6 0.00 0.00 0.00 35 1008.4